Hourly Weather Hominichi

Today, 16 April, Friday

Time Temperature Precipitation Wind Pressure Humidity
00:00 +7°C° 0.1 mm 6 mps 741 mmHg 91%
01:00 +7°C° 0.1 mm 6 mps 741 mmHg 92%
02:00 +7°C° 0 mm 6 mps 741 mmHg 91%
03:00 +7°C° 0.4 mm 6 mps 741 mmHg 92%
04:00 +7°C° 0.4 mm 6 mps 741 mmHg 92%
05:00 +5°C° 0.4 mm 6 mps 741 mmHg 92%
06:00 +7°C° 0.9 mm 6 mps 741 mmHg 92%
07:00 +7°C° 0.9 mm 6 mps 741 mmHg 91%
08:00 +7°C° 0 mm 5 mps 742 mmHg 91%
09:00 +8°C° 0 mm 6 mps 742 mmHg 87%
10:00 +9°C° 0 mm 6 mps 742 mmHg 83%
11:00 +10°C° 0 mm 6 mps 742 mmHg 79%
12:00 +11°C° 0.3 mm 6 mps 742 mmHg 75%
13:00 +11°C° 0.3 mm 7 mps 742 mmHg 72%
14:00 +12°C° 0.3 mm 7 mps 743 mmHg 68%
15:00 +12°C° 0.4 mm 7 mps 743 mmHg 69%
16:00 +13°C° 0.4 mm 6 mps 743 mmHg 70%
17:00 +11°C° 0.4 mm 6 mps 743 mmHg 71%
18:00 +10°C° 0.4 mm 5 mps 743 mmHg 77%
19:00 +9°C° 0.4 mm 5 mps 743 mmHg 83%
20:00 +8°C° 0.4 mm 5 mps 743 mmHg 89%
21:00 +8°C° 0.2 mm 4 mps 743 mmHg 90%
22:00 +7°C° 0.2 mm 4 mps 743 mmHg 92%
23:00 +8°C° 0.2 mm 3 mps 743 mmHg 93%

Tomorrow, 17 April, Saturday

Time Temperature Precipitation Wind Pressure Humidity
00:00 +8°C° 0.1 mm 3 mps 744 mmHg 94%
01:00 +8°C° 0.1 mm 3 mps 744 mmHg 95%
02:00 +8°C° 0.1 mm 3 mps 744 mmHg 96%
03:00 +8°C° 0.1 mm 3 mps 744 mmHg 96%
04:00 +7°C° 0.1 mm 3 mps 744 mmHg 96%
05:00 +7°C° 0.1 mm 3 mps 744 mmHg 96%
06:00 +8°C° 0.1 mm 3 mps 744 mmHg 92%
07:00 +9°C° 0.1 mm 3 mps 745 mmHg 88%
08:00 +9°C° 0.1 mm 3 mps 745 mmHg 83%
09:00 +11°C° 0 mm 4 mps 745 mmHg 74%
10:00 +12°C° 0 mm 4 mps 746 mmHg 65%
11:00 +13°C° 0 mm 4 mps 746 mmHg 55%
12:00 +13°C° 0 mm 4 mps 746 mmHg 54%
13:00 +13°C° 0 mm 4 mps 746 mmHg 54%
14:00 +14°C° 0 mm 4 mps 746 mmHg 53%
15:00 +13°C° 0.4 mm 4 mps 746 mmHg 61%
16:00 +12°C° 0.4 mm 5 mps 745 mmHg 69%
17:00 +10°C° 0.4 mm 6 mps 745 mmHg 77%
18:00 +10°C° 0.3 mm 6 mps 745 mmHg 79%
19:00 +9°C° 0.3 mm 6 mps 745 mmHg 80%
20:00 +9°C° 0.3 mm 6 mps 745 mmHg 82%
21:00 +9°C° 0.1 mm 6 mps 745 mmHg 82%
22:00 +9°C° 0.1 mm 6 mps 745 mmHg 82%
23:00 +8°C° 0.1 mm 6 mps 744 mmHg 83%

Day after tomorrow, 18 April, Sunday

Time Temperature Precipitation Wind Pressure Humidity
00:00 +8°C° 0 mm 6 mps 744 mmHg 83%
01:00 +7°C° 0 mm 6 mps 744 mmHg 83%
02:00 +7°C° 0 mm 6 mps 744 mmHg 83%
03:00 +5°C° 0 mm 6 mps 745 mmHg 83%
04:00 +6°C° 0 mm 5 mps 745 mmHg 84%
05:00 +6°C° 0 mm 5 mps 745 mmHg 84%
06:00 +6°C° 0 mm 4 mps 745 mmHg 83%
07:00 +6°C° 0 mm 4 mps 745 mmHg 82%
08:00 +6°C° 0 mm 4 mps 746 mmHg 81%
09:00 +7°C° 0 mm 4 mps 746 mmHg 78%
10:00 +7°C° 0 mm 4 mps 746 mmHg 74%
11:00 +8°C° 0 mm 4 mps 746 mmHg 70%
12:00 +8°C° 0.1 mm 4 mps 746 mmHg 69%
13:00 +9°C° 0.1 mm 5 mps 746 mmHg 68%
14:00 +9°C° 0.1 mm 5 mps 746 mmHg 68%
15:00 +9°C° 0.1 mm 5 mps 746 mmHg 70%
16:00 +8°C° 0.1 mm 5 mps 746 mmHg 72%
17:00 +8°C° 0.1 mm 6 mps 746 mmHg 74%
18:00 +7°C° 0 mm 5 mps 746 mmHg 79%
19:00 +6°C° 0 mm 5 mps 746 mmHg 83%
20:00 +5°C° 0 mm 4 mps 747 mmHg 88%
21:00 +5°C° 0 mm 4 mps 746 mmHg 87%
22:00 +5°C° 0 mm 4 mps 746 mmHg 86%
23:00 +5°C° 0 mm 4 mps 746 mmHg 85%

19 April, Monday

Time Temperature Precipitation Wind Pressure Humidity
00:00 +5°C° 0 mm 4 mps 746 mmHg 86%
01:00 +5°C° 0 mm 4 mps 746 mmHg 87%
02:00 +4°C° 0 mm 4 mps 746 mmHg 89%
03:00 +3°C° 0 mm 5 mps 746 mmHg 89%
04:00 +3°C° 0 mm 5 mps 746 mmHg 89%
05:00 +3°C° 0 mm 5 mps 745 mmHg 89%
06:00 +3°C° 0 mm 5 mps 745 mmHg 87%
07:00 +5°C° 0 mm 5 mps 745 mmHg 86%
08:00 +4°C° 0 mm 6 mps 745 mmHg 85%
09:00 +4°C° 0.2 mm 6 mps 745 mmHg 86%
10:00 +4°C° 0.2 mm 6 mps 745 mmHg 88%
11:00 +4°C° 0.2 mm 6 mps 744 mmHg 89%
12:00 +4°C° 0.1 mm 6 mps 744 mmHg 89%
13:00 +4°C° 0.1 mm 6 mps 744 mmHg 88%
14:00 +5°C° 0.1 mm 6 mps 744 mmHg 87%
15:00 +5°C° 0.2 mm 6 mps 743 mmHg 86%
16:00 +5°C° 0.2 mm 6 mps 743 mmHg 86%
17:00 +5°C° 0.2 mm 7 mps 743 mmHg 85%
18:00 +5°C° 0.3 mm 6 mps 743 mmHg 87%
19:00 +5°C° 0.3 mm 6 mps 742 mmHg 88%
20:00 +5°C° 0.3 mm 5 mps 742 mmHg 90%
21:00 +6°C° 0.3 mm 5 mps 742 mmHg 90%
22:00 +5°C° 0.3 mm 6 mps 742 mmHg 91%
23:00 +5°C° 0.3 mm 6 mps 741 mmHg 91%

20 April, Tuesday

Time Temperature Precipitation Wind Pressure Humidity
00:00 +5°C° 1.6 mm 5 mps 741 mmHg 92%
01:00 +5°C° 1.6 mm 4 mps 740 mmHg 93%
02:00 +5°C° 1.6 mm 3 mps 740 mmHg 94%
03:00 +5°C° 0.5 mm 4 mps 740 mmHg 93%
04:00 +5°C° 0.5 mm 5 mps 739 mmHg 93%
05:00 +5°C° 0.5 mm 5 mps 739 mmHg 92%
06:00 +5°C° 0 mm 5 mps 738 mmHg 92%
07:00 +5°C° 0 mm 5 mps 737 mmHg 92%
08:00 +5°C° 0 mm 5 mps 737 mmHg 91%
09:00 +5°C° 0.1 mm 5 mps 736 mmHg 91%
10:00 +5°C° 0.1 mm 5 mps 735 mmHg 91%
11:00 +4°C° 0.1 mm 6 mps 735 mmHg 91%
12:00 +3°C° 0.9 mm 6 mps 734 mmHg 93%
13:00 +2°C° 0.9 mm 6 mps 733 mmHg 94%
14:00 +2°C° 0.9 mm 6 mps 733 mmHg 96%
15:00 +1°C° 1.1 mm 6 mps 732 mmHg 96%
16:00 +1°C° 1.1 mm 6 mps 731 mmHg 96%
17:00 +1°C° 1.1 mm 6 mps 730 mmHg 96%
18:00 +1°C° 1.5 mm 5 mps 729 mmHg 97%
19:00 +1°C° 1.5 mm 5 mps 728 mmHg 97%
20:00 +1°C° 1.5 mm 5 mps 728 mmHg 97%
21:00 +1°C° 0.7 mm 5 mps 727 mmHg 97%
22:00 +1°C° 0.7 mm 4 mps 727 mmHg 97%
23:00 +1°C° 0.7 mm 4 mps 726 mmHg 97%

21 April, Wednesday

Time Temperature Precipitation Wind Pressure Humidity
00:00 +1°C° 0.6 mm 4 mps 726 mmHg 97%
01:00 +1°C° 0.6 mm 4 mps 725 mmHg 97%
02:00 +3°C° 0.6 mm 4 mps 725 mmHg 98%
03:00 +1°C° 0.5 mm 5 mps 725 mmHg 97%
04:00 +1°C° 0.5 mm 5 mps 725 mmHg 97%
05:00 -1°C° 0.5 mm 6 mps 725 mmHg 97%
06:00 -1°C° 0.9 mm 6 mps 725 mmHg 97%
07:00 -1°C° 0.9 mm 6 mps 726 mmHg 97%
08:00 -1°C° 0.9 mm 7 mps 726 mmHg 97%
09:00 -1°C° 0.6 mm 6 mps 727 mmHg 97%
10:00 -1°C° 0.6 mm 6 mps 728 mmHg 97%
11:00 +1°C° 0.6 mm 6 mps 729 mmHg 97%
12:00 +1°C° 0.5 mm 6 mps 729 mmHg 97%
13:00 +1°C° 0.5 mm 6 mps 730 mmHg 97%
14:00 +1°C° 0.5 mm 6 mps 731 mmHg 97%
15:00 +2°C° 0.4 mm 6 mps 732 mmHg 97%
16:00 +2°C° 0.4 mm 6 mps 732 mmHg 97%
17:00 +2°C° 0.4 mm 6 mps 733 mmHg 97%
18:00 +2°C° 0.3 mm 6 mps 734 mmHg 97%
19:00 +2°C° 0.3 mm 6 mps 735 mmHg 97%
20:00 +1°C° 0.3 mm 6 mps 736 mmHg 97%
21:00 +2°C° 0.1 mm 6 mps 736 mmHg 95%
22:00 +2°C° 0.1 mm 6 mps 737 mmHg 94%
23:00 +2°C° 0.1 mm 6 mps 738 mmHg 93%
Show more